#datetime,building,power
2022-08-20T00:00:00,hld,3.44
2022-08-20T00:01:00,hld,3.45
2022-08-20T00:02:00,hld,3.49
2022-08-20T00:03:00,hld,3.50
2022-08-20T00:04:00,hld,3.49
2022-08-20T00:05:00,hld,3.51
2022-08-20T00:06:00,hld,3.45
2022-08-20T00:07:00,hld,3.45
2022-08-20T00:08:00,hld,3.45
2022-08-20T00:09:00,hld,3.46
2022-08-20T00:10:00,hld,3.45
2022-08-20T00:11:00,hld,3.46
2022-08-20T00:12:00,hld,3.92
2022-08-20T00:13:00,hld,3.45
2022-08-20T00:14:00,hld,3.45
2022-08-20T00:15:00,hld,3.45
2022-08-20T00:16:00,hld,3.50
2022-08-20T00:17:00,hld,3.98
2022-08-20T00:18:00,hld,3.50
2022-08-20T00:19:00,hld,3.57
2022-08-20T00:20:00,hld,3.45
2022-08-20T00:21:00,hld,3.60
2022-08-20T00:22:00,hld,3.61
2022-08-20T00:23:00,hld,3.59
2022-08-20T00:24:00,hld,3.61
2022-08-20T00:25:00,hld,3.58
2022-08-20T00:26:00,hld,3.58
2022-08-20T00:27:00,hld,3.58
2022-08-20T00:28:00,hld,3.58
2022-08-20T00:29:00,hld,3.62
2022-08-20T00:30:00,hld,3.58
2022-08-20T00:31:00,hld,3.60
2022-08-20T00:32:00,hld,3.58
2022-08-20T00:33:00,hld,3.58
2022-08-20T00:34:00,hld,3.58
2022-08-20T00:35:00,hld,3.62
2022-08-20T00:36:00,hld,3.58
2022-08-20T00:37:00,hld,3.61
2022-08-20T00:38:00,hld,3.58
2022-08-20T00:39:00,hld,3.50
2022-08-20T00:40:00,hld,3.45
2022-08-20T00:41:00,hld,3.45
2022-08-20T00:42:00,hld,3.44
2022-08-20T00:43:00,hld,3.48
2022-08-20T00:44:00,hld,3.45
2022-08-20T00:45:00,hld,3.46
2022-08-20T00:46:00,hld,3.49
2022-08-20T00:47:00,hld,3.45
2022-08-20T00:48:00,hld,3.88
2022-08-20T00:49:00,hld,3.92
2022-08-20T00:50:00,hld,3.92
2022-08-20T00:51:00,hld,3.92
2022-08-20T00:52:00,hld,3.90
2022-08-20T00:53:00,hld,3.94
2022-08-20T00:54:00,hld,3.94
2022-08-20T00:55:00,hld,3.94
2022-08-20T00:56:00,hld,3.90
2022-08-20T00:57:00,hld,3.88
2022-08-20T00:58:00,hld,4.19
2022-08-20T00:59:00,hld,3.90
2022-08-20T01:00:00,hld,3.92
2022-08-20T01:01:00,hld,3.89
2022-08-20T01:02:00,hld,3.88
2022-08-20T01:03:00,hld,3.88
2022-08-20T01:04:00,hld,3.89
2022-08-20T01:05:00,hld,3.91
2022-08-20T01:06:00,hld,11.96
2022-08-20T01:07:00,hld,12.29
2022-08-20T01:08:00,hld,11.69
2022-08-20T01:09:00,hld,11.70
2022-08-20T01:10:00,hld,3.61
2022-08-20T01:11:00,hld,3.60
2022-08-20T01:12:00,hld,3.61
2022-08-20T01:13:00,hld,3.61
2022-08-20T01:14:00,hld,3.62
2022-08-20T01:15:00,hld,3.61
2022-08-20T01:16:00,hld,3.61
2022-08-20T01:17:00,hld,3.66
2022-08-20T01:18:00,hld,5.10
2022-08-20T01:19:00,hld,3.60
2022-08-20T01:20:00,hld,3.60
2022-08-20T01:21:00,hld,3.59
2022-08-20T01:22:00,hld,3.61
2022-08-20T01:23:00,hld,3.61
2022-08-20T01:24:00,hld,3.60
2022-08-20T01:25:00,hld,3.61
2022-08-20T01:26:00,hld,3.49
2022-08-20T01:27:00,hld,3.46
2022-08-20T01:28:00,hld,3.47
2022-08-20T01:29:00,hld,3.71
2022-08-20T01:30:00,hld,3.46
2022-08-20T01:31:00,hld,3.48
2022-08-20T01:32:00,hld,3.51
2022-08-20T01:33:00,hld,3.47
2022-08-20T01:34:00,hld,3.47
2022-08-20T01:35:00,hld,3.47
2022-08-20T01:36:00,hld,3.48
2022-08-20T01:37:00,hld,3.48
2022-08-20T01:38:00,hld,3.48
2022-08-20T01:39:00,hld,3.48
2022-08-20T01:40:00,hld,3.47
2022-08-20T01:41:00,hld,3.48
2022-08-20T01:42:00,hld,3.47
2022-08-20T01:43:00,hld,3.47
2022-08-20T01:44:00,hld,3.49
2022-08-20T01:45:00,hld,3.48
2022-08-20T01:46:00,hld,3.48
2022-08-20T01:47:00,hld,3.51
2022-08-20T01:48:00,hld,3.46
2022-08-20T01:49:00,hld,3.47
2022-08-20T01:50:00,hld,3.62
2022-08-20T01:51:00,hld,3.60
2022-08-20T01:52:00,hld,3.61
2022-08-20T01:53:00,hld,3.60
2022-08-20T01:54:00,hld,3.58
2022-08-20T01:55:00,hld,3.59
2022-08-20T01:56:00,hld,3.58
2022-08-20T01:57:00,hld,3.59
2022-08-20T01:58:00,hld,3.59
2022-08-20T01:59:00,hld,3.47
2022-08-20T02:00:00,hld,3.46
2022-08-20T02:01:00,hld,3.47
2022-08-20T02:02:00,hld,3.49
2022-08-20T02:03:00,hld,3.47
2022-08-20T02:04:00,hld,4.07
2022-08-20T02:05:00,hld,3.48
2022-08-20T02:06:00,hld,3.48
2022-08-20T02:07:00,hld,3.48
2022-08-20T02:08:00,hld,3.49
2022-08-20T02:09:00,hld,3.49
2022-08-20T02:10:00,hld,3.47
2022-08-20T02:11:00,hld,3.63
2022-08-20T02:12:00,hld,3.60
2022-08-20T02:13:00,hld,3.66
2022-08-20T02:14:00,hld,3.63
2022-08-20T02:15:00,hld,3.61
2022-08-20T02:16:00,hld,3.61
2022-08-20T02:17:00,hld,4.81
2022-08-20T02:18:00,hld,3.60
2022-08-20T02:19:00,hld,3.58
2022-08-20T02:20:00,hld,3.59
2022-08-20T02:21:00,hld,3.56
2022-08-20T02:22:00,hld,3.59
2022-08-20T02:23:00,hld,3.58
2022-08-20T02:24:00,hld,3.57
2022-08-20T02:25:00,hld,3.45
2022-08-20T02:26:00,hld,3.45
2022-08-20T02:27:00,hld,3.46
2022-08-20T02:28:00,hld,3.46
2022-08-20T02:29:00,hld,3.45
2022-08-20T02:30:00,hld,3.45
2022-08-20T02:31:00,hld,3.45
2022-08-20T02:32:00,hld,3.46
2022-08-20T02:33:00,hld,3.46
2022-08-20T02:34:00,hld,3.69
2022-08-20T02:35:00,hld,3.46
2022-08-20T02:36:00,hld,3.46
2022-08-20T02:37:00,hld,3.45
2022-08-20T02:38:00,hld,3.45
2022-08-20T02:39:00,hld,3.45
2022-08-20T02:40:00,hld,3.46
2022-08-20T02:41:00,hld,3.46
2022-08-20T02:42:00,hld,3.46
2022-08-20T02:43:00,hld,3.46
2022-08-20T02:44:00,hld,3.51
2022-08-20T02:45:00,hld,3.45
2022-08-20T02:46:00,hld,3.45
2022-08-20T02:47:00,hld,3.48
2022-08-20T02:48:00,hld,3.46
2022-08-20T02:49:00,hld,3.48
2022-08-20T02:50:00,hld,3.47
2022-08-20T02:51:00,hld,3.46
2022-08-20T02:52:00,hld,3.47
2022-08-20T02:53:00,hld,3.46
2022-08-20T02:54:00,hld,3.46
2022-08-20T02:55:00,hld,3.60
2022-08-20T02:56:00,hld,3.58
2022-08-20T02:57:00,hld,3.59
2022-08-20T02:58:00,hld,3.59
2022-08-20T02:59:00,hld,3.59
2022-08-20T03:00:00,hld,3.60
2022-08-20T03:01:00,hld,3.59
2022-08-20T03:02:00,hld,3.59
2022-08-20T03:03:00,hld,4.30
2022-08-20T03:04:00,hld,3.57
2022-08-20T03:05:00,hld,3.57
2022-08-20T03:06:00,hld,3.59
2022-08-20T03:07:00,hld,4.29
2022-08-20T03:08:00,hld,3.60
2022-08-20T03:09:00,hld,3.58
2022-08-20T03:10:00,hld,3.58
2022-08-20T03:11:00,hld,3.45
2022-08-20T03:12:00,hld,3.46
2022-08-20T03:13:00,hld,3.50
2022-08-20T03:14:00,hld,3.47
2022-08-20T03:15:00,hld,3.45
2022-08-20T03:16:00,hld,3.70
2022-08-20T03:17:00,hld,3.48
2022-08-20T03:18:00,hld,3.47
2022-08-20T03:19:00,hld,3.45
2022-08-20T03:20:00,hld,3.44
2022-08-20T03:21:00,hld,3.43
2022-08-20T03:22:00,hld,3.46
2022-08-20T03:23:00,hld,3.45
2022-08-20T03:24:00,hld,3.45
2022-08-20T03:25:00,hld,3.46
2022-08-20T03:26:00,hld,3.45
2022-08-20T03:27:00,hld,3.44
2022-08-20T03:28:00,hld,3.45
2022-08-20T03:29:00,hld,3.45
2022-08-20T03:30:00,hld,3.44
2022-08-20T03:31:00,hld,3.46
2022-08-20T03:32:00,hld,3.45
2022-08-20T03:33:00,hld,3.43
2022-08-20T03:34:00,hld,3.44
2022-08-20T03:35:00,hld,3.45
2022-08-20T03:36:00,hld,3.50
2022-08-20T03:37:00,hld,3.44
2022-08-20T03:38:00,hld,3.44
2022-08-20T03:39:00,hld,3.48
2022-08-20T03:40:00,hld,3.79
2022-08-20T03:41:00,hld,3.45
2022-08-20T03:42:00,hld,3.62
2022-08-20T03:43:00,hld,3.59
2022-08-20T03:44:00,hld,3.58
2022-08-20T03:45:00,hld,4.28
2022-08-20T03:46:00,hld,3.59
2022-08-20T03:47:00,hld,3.58
2022-08-20T03:48:00,hld,3.58
2022-08-20T03:49:00,hld,3.58
2022-08-20T03:50:00,hld,3.58
2022-08-20T03:51:00,hld,3.58
2022-08-20T03:52:00,hld,3.59
2022-08-20T03:53:00,hld,3.66
2022-08-20T03:54:00,hld,3.57
2022-08-20T03:55:00,hld,3.58
2022-08-20T03:56:00,hld,3.57
2022-08-20T03:57:00,hld,3.57
2022-08-20T03:58:00,hld,3.56
2022-08-20T03:59:00,hld,3.57
2022-08-20T04:00:00,hld,3.56
2022-08-20T04:01:00,hld,3.45
2022-08-20T04:02:00,hld,3.46
2022-08-20T04:03:00,hld,3.65
2022-08-20T04:04:00,hld,3.45
2022-08-20T04:05:00,hld,3.44
2022-08-20T04:06:00,hld,3.44
2022-08-20T04:07:00,hld,3.45
2022-08-20T04:08:00,hld,3.49
2022-08-20T04:09:00,hld,3.44
2022-08-20T04:10:00,hld,3.43
2022-08-20T04:11:00,hld,3.45
2022-08-20T04:12:00,hld,3.45
2022-08-20T04:13:00,hld,3.68
2022-08-20T04:14:00,hld,3.45
2022-08-20T04:15:00,hld,3.45
2022-08-20T04:16:00,hld,3.44
2022-08-20T04:17:00,hld,3.51
2022-08-20T04:18:00,hld,3.40
2022-08-20T04:19:00,hld,3.47
2022-08-20T04:20:00,hld,3.43
2022-08-20T04:21:00,hld,3.45
2022-08-20T04:22:00,hld,3.47
2022-08-20T04:23:00,hld,3.45
2022-08-20T04:24:00,hld,3.45
2022-08-20T04:25:00,hld,4.12
2022-08-20T04:26:00,hld,3.45
2022-08-20T04:27:00,hld,3.46
2022-08-20T04:28:00,hld,3.45
2022-08-20T04:29:00,hld,3.46
2022-08-20T04:30:00,hld,3.59
2022-08-20T04:31:00,hld,3.59
2022-08-20T04:32:00,hld,3.59
2022-08-20T04:33:00,hld,3.58
2022-08-20T04:34:00,hld,3.57
2022-08-20T04:35:00,hld,3.56
2022-08-20T04:36:00,hld,3.60
2022-08-20T04:37:00,hld,3.58
2022-08-20T04:38:00,hld,3.58
2022-08-20T04:39:00,hld,3.57
2022-08-20T04:40:00,hld,3.58
2022-08-20T04:41:00,hld,3.45
2022-08-20T04:42:00,hld,3.46
2022-08-20T04:43:00,hld,3.47
2022-08-20T04:44:00,hld,3.48
2022-08-20T04:45:00,hld,3.46
2022-08-20T04:46:00,hld,3.45
2022-08-20T04:47:00,hld,3.45
2022-08-20T04:48:00,hld,3.46
2022-08-20T04:49:00,hld,3.46
2022-08-20T04:50:00,hld,3.62
2022-08-20T04:51:00,hld,3.59
2022-08-20T04:52:00,hld,3.58
2022-08-20T04:53:00,hld,3.59
2022-08-20T04:54:00,hld,3.58
2022-08-20T04:55:00,hld,3.59
2022-08-20T04:56:00,hld,3.57
2022-08-20T04:57:00,hld,3.57
2022-08-20T04:58:00,hld,3.56
2022-08-20T04:59:00,hld,3.57
2022-08-20T05:00:00,hld,3.58
2022-08-20T05:01:00,hld,3.56
2022-08-20T05:02:00,hld,3.58
2022-08-20T05:03:00,hld,3.85
2022-08-20T05:04:00,hld,3.45
2022-08-20T05:05:00,hld,3.44
2022-08-20T05:06:00,hld,3.90
2022-08-20T05:07:00,hld,4.44
2022-08-20T05:08:00,hld,12.57
2022-08-20T05:09:00,hld,12.29
2022-08-20T05:10:00,hld,12.14
2022-08-20T05:11:00,hld,12.55
2022-08-20T05:12:00,hld,11.92
2022-08-20T05:13:00,hld,4.54
2022-08-20T05:14:00,hld,3.88
2022-08-20T05:15:00,hld,3.89
2022-08-20T05:16:00,hld,3.90
2022-08-20T05:17:00,hld,3.90
2022-08-20T05:18:00,hld,3.45
2022-08-20T05:19:00,hld,3.50
2022-08-20T05:20:00,hld,3.49
2022-08-20T05:21:00,hld,3.45
2022-08-20T05:22:00,hld,3.48
2022-08-20T05:23:00,hld,3.62
2022-08-20T05:24:00,hld,3.61
2022-08-20T05:25:00,hld,3.63
2022-08-20T05:26:00,hld,3.60
2022-08-20T05:27:00,hld,3.60
2022-08-20T05:28:00,hld,3.60
2022-08-20T05:29:00,hld,3.60
2022-08-20T05:30:00,hld,3.61
2022-08-20T05:31:00,hld,3.63
2022-08-20T05:32:00,hld,3.59
2022-08-20T05:33:00,hld,3.59
2022-08-20T05:34:00,hld,3.59
2022-08-20T05:35:00,hld,3.62
2022-08-20T05:36:00,hld,3.61
2022-08-20T05:37:00,hld,3.58
2022-08-20T05:38:00,hld,3.58
2022-08-20T05:39:00,hld,3.58
2022-08-20T05:40:00,hld,3.60
2022-08-20T05:41:00,hld,3.59
2022-08-20T05:42:00,hld,3.60
2022-08-20T05:43:00,hld,3.57
2022-08-20T05:44:00,hld,3.59
2022-08-20T05:45:00,hld,3.56
2022-08-20T05:46:00,hld,3.60
2022-08-20T05:47:00,hld,3.57
2022-08-20T05:48:00,hld,3.57
2022-08-20T05:49:00,hld,3.58
2022-08-20T05:50:00,hld,3.58
2022-08-20T05:51:00,hld,3.45
2022-08-20T05:52:00,hld,3.46
2022-08-20T05:53:00,hld,3.44
2022-08-20T05:54:00,hld,3.45
2022-08-20T05:55:00,hld,3.45
2022-08-20T05:56:00,hld,3.46
2022-08-20T05:57:00,hld,3.45
2022-08-20T05:58:00,hld,3.45
2022-08-20T05:59:00,hld,3.45
2022-08-20T06:00:00,hld,3.46
2022-08-20T06:01:00,hld,3.49
2022-08-20T06:02:00,hld,3.22
2022-08-20T06:03:00,hld,9.92
2022-08-20T06:04:00,hld,12.71
2022-08-20T06:05:00,hld,13.14
2022-08-20T06:06:00,hld,12.23
2022-08-20T06:07:00,hld,12.28
2022-08-20T06:08:00,hld,12.35
2022-08-20T06:09:00,hld,12.31
2022-08-20T06:10:00,hld,12.27
2022-08-20T06:11:00,hld,12.26
2022-08-20T06:12:00,hld,12.29
2022-08-20T06:13:00,hld,12.28
2022-08-20T06:14:00,hld,12.27
2022-08-20T06:15:00,hld,12.27
2022-08-20T06:16:00,hld,13.87
2022-08-20T06:17:00,hld,12.42
2022-08-20T06:18:00,hld,12.39
2022-08-20T06:19:00,hld,12.40
2022-08-20T06:20:00,hld,12.39
2022-08-20T06:21:00,hld,12.39
2022-08-20T06:22:00,hld,12.41
2022-08-20T06:23:00,hld,12.61
2022-08-20T06:24:00,hld,12.38
2022-08-20T06:25:00,hld,12.37
2022-08-20T06:26:00,hld,12.44
2022-08-20T06:27:00,hld,12.45
2022-08-20T06:28:00,hld,12.42
2022-08-20T06:29:00,hld,6.34
2022-08-20T06:30:00,hld,6.32
2022-08-20T06:31:00,hld,6.32
2022-08-20T06:32:00,hld,6.34
2022-08-20T06:33:00,hld,6.33
2022-08-20T06:34:00,hld,6.18
2022-08-20T06:35:00,hld,6.18
2022-08-20T06:36:00,hld,6.19
2022-08-20T06:37:00,hld,6.19
2022-08-20T06:38:00,hld,6.20
2022-08-20T06:39:00,hld,6.19
2022-08-20T06:40:00,hld,6.19
2022-08-20T06:41:00,hld,6.18
2022-08-20T06:42:00,hld,6.19
2022-08-20T06:43:00,hld,6.20
2022-08-20T06:44:00,hld,6.20
2022-08-20T06:45:00,hld,6.20
2022-08-20T06:46:00,hld,6.20
2022-08-20T06:47:00,hld,6.17
2022-08-20T06:48:00,hld,6.18
2022-08-20T06:49:00,hld,6.18
2022-08-20T06:50:00,hld,6.17
2022-08-20T06:51:00,hld,6.15
2022-08-20T06:52:00,hld,6.17
2022-08-20T06:53:00,hld,6.17
2022-08-20T06:54:00,hld,6.18
2022-08-20T06:55:00,hld,6.18
2022-08-20T06:56:00,hld,6.17
2022-08-20T06:57:00,hld,6.18
2022-08-20T06:58:00,hld,6.15
2022-08-20T06:59:00,hld,6.16
2022-08-20T07:00:00,hld,6.20
2022-08-20T07:01:00,hld,6.17
2022-08-20T07:02:00,hld,6.17
2022-08-20T07:03:00,hld,6.31
2022-08-20T07:04:00,hld,6.30
2022-08-20T07:05:00,hld,6.32
2022-08-20T07:06:00,hld,7.75
2022-08-20T07:07:00,hld,6.28
2022-08-20T07:08:00,hld,6.28
2022-08-20T07:09:00,hld,6.29
2022-08-20T07:10:00,hld,6.28
2022-08-20T07:11:00,hld,6.28
2022-08-20T07:12:00,hld,6.27
2022-08-20T07:13:00,hld,6.26
2022-08-20T07:14:00,hld,6.29
2022-08-20T07:15:00,hld,6.28
2022-08-20T07:16:00,hld,6.29
2022-08-20T07:17:00,hld,6.28
2022-08-20T07:18:00,hld,6.16
2022-08-20T07:19:00,hld,6.15
2022-08-20T07:20:00,hld,6.15
2022-08-20T07:21:00,hld,6.17
2022-08-20T07:22:00,hld,6.15
2022-08-20T07:23:00,hld,6.17
2022-08-20T07:24:00,hld,6.86
2022-08-20T07:25:00,hld,6.15
2022-08-20T07:26:00,hld,6.15
2022-08-20T07:27:00,hld,6.13
2022-08-20T07:28:00,hld,6.29
2022-08-20T07:29:00,hld,6.27
2022-08-20T07:30:00,hld,6.26
2022-08-20T07:31:00,hld,6.29
2022-08-20T07:32:00,hld,6.27
2022-08-20T07:33:00,hld,6.26
2022-08-20T07:34:00,hld,6.25
2022-08-20T07:35:00,hld,6.25
2022-08-20T07:36:00,hld,6.20
2022-08-20T07:37:00,hld,6.15
2022-08-20T07:38:00,hld,6.12
2022-08-20T07:39:00,hld,6.14
2022-08-20T07:40:00,hld,6.13
2022-08-20T07:41:00,hld,6.12
2022-08-20T07:42:00,hld,6.13
2022-08-20T07:43:00,hld,6.15
2022-08-20T07:44:00,hld,6.11
2022-08-20T07:45:00,hld,6.10
2022-08-20T07:46:00,hld,6.11
2022-08-20T07:47:00,hld,6.14
2022-08-20T07:48:00,hld,6.11
2022-08-20T07:49:00,hld,6.13
2022-08-20T07:50:00,hld,6.84
2022-08-20T07:51:00,hld,6.14
2022-08-20T07:52:00,hld,6.11
2022-08-20T07:53:00,hld,6.13
2022-08-20T07:54:00,hld,6.12
2022-08-20T07:55:00,hld,6.13
2022-08-20T07:56:00,hld,7.70
2022-08-20T07:57:00,hld,6.12
2022-08-20T07:58:00,hld,6.15
2022-08-20T07:59:00,hld,6.12
2022-08-20T08:00:00,hld,6.12
2022-08-20T08:01:00,hld,7.17
2022-08-20T08:02:00,hld,7.29
2022-08-20T08:03:00,hld,7.28
2022-08-20T08:04:00,hld,7.33
2022-08-20T08:05:00,hld,7.36
2022-08-20T08:06:00,hld,7.33
2022-08-20T08:07:00,hld,7.31
2022-08-20T08:08:00,hld,7.37
2022-08-20T08:09:00,hld,7.35
2022-08-20T08:10:00,hld,7.33
2022-08-20T08:11:00,hld,7.34
2022-08-20T08:12:00,hld,7.35
2022-08-20T08:13:00,hld,7.32
2022-08-20T08:14:00,hld,7.26
2022-08-20T08:15:00,hld,7.32
2022-08-20T08:16:00,hld,7.25
2022-08-20T08:17:00,hld,7.14
2022-08-20T08:18:00,hld,7.24
2022-08-20T08:19:00,hld,7.24
2022-08-20T08:20:00,hld,7.15
2022-08-20T08:21:00,hld,7.16
2022-08-20T08:22:00,hld,12.31
2022-08-20T08:23:00,hld,12.49
2022-08-20T08:24:00,hld,12.34
2022-08-20T08:25:00,hld,12.20
2022-08-20T08:26:00,hld,12.19
2022-08-20T08:27:00,hld,12.25
2022-08-20T08:28:00,hld,12.28
2022-08-20T08:29:00,hld,12.23
2022-08-20T08:30:00,hld,12.23
2022-08-20T08:31:00,hld,12.22
2022-08-20T08:32:00,hld,12.24
2022-08-20T08:33:00,hld,12.27
2022-08-20T08:34:00,hld,12.23
2022-08-20T08:35:00,hld,12.25
2022-08-20T08:36:00,hld,12.22
2022-08-20T08:37:00,hld,12.22
2022-08-20T08:38:00,hld,12.25
2022-08-20T08:39:00,hld,12.24
2022-08-20T08:40:00,hld,12.29
2022-08-20T08:41:00,hld,12.23
2022-08-20T08:42:00,hld,12.25
2022-08-20T08:43:00,hld,12.21
2022-08-20T08:44:00,hld,12.24
2022-08-20T08:45:00,hld,12.24
2022-08-20T08:46:00,hld,12.25
2022-08-20T08:47:00,hld,12.24
2022-08-20T08:48:00,hld,12.35
2022-08-20T08:49:00,hld,12.37
2022-08-20T08:50:00,hld,12.37
2022-08-20T08:51:00,hld,12.38
2022-08-20T08:52:00,hld,12.39
2022-08-20T08:53:00,hld,12.37
2022-08-20T08:54:00,hld,12.38
2022-08-20T08:55:00,hld,12.38
2022-08-20T08:56:00,hld,12.39
2022-08-20T08:57:00,hld,12.37
2022-08-20T08:58:00,hld,6.31
2022-08-20T08:59:00,hld,6.27
2022-08-20T09:00:00,hld,6.29
2022-08-20T09:01:00,hld,6.30
2022-08-20T09:02:00,hld,6.31
2022-08-20T09:03:00,hld,6.29
2022-08-20T09:04:00,hld,6.16
2022-08-20T09:05:00,hld,6.56
2022-08-20T09:06:00,hld,7.03
2022-08-20T09:07:00,hld,7.86
2022-08-20T09:08:00,hld,7.27
2022-08-20T09:09:00,hld,7.27
2022-08-20T09:10:00,hld,7.25
2022-08-20T09:11:00,hld,7.25
2022-08-20T09:12:00,hld,15.89
2022-08-20T09:13:00,hld,15.67
2022-08-20T09:14:00,hld,15.50
2022-08-20T09:15:00,hld,15.42
2022-08-20T09:16:00,hld,15.90
2022-08-20T09:17:00,hld,7.20
2022-08-20T09:18:00,hld,7.52
2022-08-20T09:19:00,hld,7.21
2022-08-20T09:20:00,hld,7.72
2022-08-20T09:21:00,hld,7.19
2022-08-20T09:22:00,hld,7.01
2022-08-20T09:23:00,hld,6.60
2022-08-20T09:24:00,hld,6.58
2022-08-20T09:25:00,hld,6.57
2022-08-20T09:26:00,hld,6.58
2022-08-20T09:27:00,hld,6.60
2022-08-20T09:28:00,hld,6.59
2022-08-20T09:29:00,hld,6.12
2022-08-20T09:30:00,hld,6.16
2022-08-20T09:31:00,hld,6.13
2022-08-20T09:32:00,hld,6.25
2022-08-20T09:33:00,hld,6.23
2022-08-20T09:34:00,hld,6.25
2022-08-20T09:35:00,hld,6.24
2022-08-20T09:36:00,hld,6.23
2022-08-20T09:37:00,hld,6.20
2022-08-20T09:38:00,hld,6.22
2022-08-20T09:39:00,hld,6.22
2022-08-20T09:40:00,hld,6.25
2022-08-20T09:41:00,hld,6.23
2022-08-20T09:42:00,hld,6.23
2022-08-20T09:43:00,hld,6.24
2022-08-20T09:44:00,hld,6.27
2022-08-20T09:45:00,hld,6.26
2022-08-20T09:46:00,hld,6.25
2022-08-20T09:47:00,hld,6.28
2022-08-20T09:48:00,hld,6.21
2022-08-20T09:49:00,hld,6.11
2022-08-20T09:50:00,hld,7.12
2022-08-20T09:51:00,hld,7.10
2022-08-20T09:52:00,hld,7.11
2022-08-20T09:53:00,hld,7.09
2022-08-20T09:54:00,hld,7.08
2022-08-20T09:55:00,hld,7.12
2022-08-20T09:56:00,hld,7.12
2022-08-20T09:57:00,hld,7.19
2022-08-20T09:58:00,hld,7.11
2022-08-20T09:59:00,hld,7.09
2022-08-20T10:00:00,hld,8.62
2022-08-20T10:01:00,hld,7.49
2022-08-20T10:02:00,hld,7.10
2022-08-20T10:03:00,hld,7.08
2022-08-20T10:04:00,hld,7.11
2022-08-20T10:05:00,hld,7.10
2022-08-20T10:06:00,hld,7.11
2022-08-20T10:07:00,hld,7.80
2022-08-20T10:08:00,hld,12.23
2022-08-20T10:09:00,hld,12.34
2022-08-20T10:10:00,hld,12.41
2022-08-20T10:11:00,hld,12.20
2022-08-20T10:12:00,hld,12.21
2022-08-20T10:13:00,hld,12.23
2022-08-20T10:14:00,hld,12.21
2022-08-20T10:15:00,hld,12.23
2022-08-20T10:16:00,hld,12.18
2022-08-20T10:17:00,hld,12.30
2022-08-20T10:18:00,hld,12.25
2022-08-20T10:19:00,hld,12.39
2022-08-20T10:20:00,hld,12.38
2022-08-20T10:21:00,hld,12.33
2022-08-20T10:22:00,hld,12.35
2022-08-20T10:23:00,hld,12.32
2022-08-20T10:24:00,hld,12.33
2022-08-20T10:25:00,hld,12.33
2022-08-20T10:26:00,hld,12.33
2022-08-20T10:27:00,hld,12.34
2022-08-20T10:28:00,hld,12.32
2022-08-20T10:29:00,hld,12.35
2022-08-20T10:30:00,hld,12.37
2022-08-20T10:31:00,hld,12.32
2022-08-20T10:32:00,hld,12.36
2022-08-20T10:33:00,hld,12.35
2022-08-20T10:34:00,hld,12.36
2022-08-20T10:35:00,hld,12.34
2022-08-20T10:36:00,hld,12.34
2022-08-20T10:37:00,hld,12.21
2022-08-20T10:38:00,hld,12.21
2022-08-20T10:39:00,hld,12.23
2022-08-20T10:40:00,hld,6.11
2022-08-20T10:41:00,hld,6.10
2022-08-20T10:42:00,hld,6.13
2022-08-20T10:43:00,hld,6.13
2022-08-20T10:44:00,hld,6.11
2022-08-20T10:45:00,hld,6.11
2022-08-20T10:46:00,hld,6.11
2022-08-20T10:47:00,hld,6.12
2022-08-20T10:48:00,hld,6.13
2022-08-20T10:49:00,hld,6.11
2022-08-20T10:50:00,hld,7.58
2022-08-20T10:51:00,hld,6.11
2022-08-20T10:52:00,hld,6.11
2022-08-20T10:53:00,hld,6.12
2022-08-20T10:54:00,hld,6.10
2022-08-20T10:55:00,hld,6.09
2022-08-20T10:56:00,hld,6.10
2022-08-20T10:57:00,hld,6.82
2022-08-20T10:58:00,hld,6.09
2022-08-20T10:59:00,hld,6.19
2022-08-20T11:00:00,hld,6.10
2022-08-20T11:01:00,hld,6.08
2022-08-20T11:02:00,hld,6.09
2022-08-20T11:03:00,hld,6.12
2022-08-20T11:04:00,hld,6.25
2022-08-20T11:05:00,hld,6.29
2022-08-20T11:06:00,hld,6.25
2022-08-20T11:07:00,hld,6.20
2022-08-20T11:08:00,hld,6.17
2022-08-20T11:09:00,hld,6.21
2022-08-20T11:10:00,hld,6.20
2022-08-20T11:11:00,hld,6.17
2022-08-20T11:12:00,hld,6.21
2022-08-20T11:13:00,hld,6.17
2022-08-20T11:14:00,hld,6.16
2022-08-20T11:15:00,hld,6.07
2022-08-20T11:16:00,hld,6.03
2022-08-20T11:17:00,hld,6.05
2022-08-20T11:18:00,hld,6.13
2022-08-20T11:19:00,hld,6.08
2022-08-20T11:20:00,hld,6.05
2022-08-20T11:21:00,hld,6.05
2022-08-20T11:22:00,hld,6.04
2022-08-20T11:23:00,hld,6.04
2022-08-20T11:24:00,hld,6.21
2022-08-20T11:25:00,hld,6.16
2022-08-20T11:26:00,hld,6.18
2022-08-20T11:27:00,hld,6.17
2022-08-20T11:28:00,hld,6.18
2022-08-20T11:29:00,hld,7.20
2022-08-20T11:30:00,hld,7.18
2022-08-20T11:31:00,hld,7.19
2022-08-20T11:32:00,hld,7.20
2022-08-20T11:33:00,hld,7.16
2022-08-20T11:34:00,hld,7.05
2022-08-20T11:35:00,hld,7.06
2022-08-20T11:36:00,hld,7.08
2022-08-20T11:37:00,hld,7.06
2022-08-20T11:38:00,hld,7.09
2022-08-20T11:39:00,hld,7.07
2022-08-20T11:40:00,hld,7.07
2022-08-20T11:41:00,hld,7.07
2022-08-20T11:42:00,hld,7.07
2022-08-20T11:43:00,hld,7.44
2022-08-20T11:44:00,hld,7.03
2022-08-20T11:45:00,hld,7.05
2022-08-20T11:46:00,hld,12.32
2022-08-20T11:47:00,hld,12.35
2022-08-20T11:48:00,hld,12.13
2022-08-20T11:49:00,hld,12.13
2022-08-20T11:50:00,hld,12.22
2022-08-20T11:51:00,hld,12.21
2022-08-20T11:52:00,hld,12.18
2022-08-20T11:53:00,hld,12.18
2022-08-20T11:54:00,hld,12.16
2022-08-20T11:55:00,hld,12.18
2022-08-20T11:56:00,hld,12.24
2022-08-20T11:57:00,hld,12.24
2022-08-20T11:58:00,hld,12.20
2022-08-20T11:59:00,hld,12.21
2022-08-20T12:00:00,hld,12.19
2022-08-20T12:01:00,hld,12.20
2022-08-20T12:02:00,hld,12.33
2022-08-20T12:03:00,hld,12.40
2022-08-20T12:04:00,hld,13.84
2022-08-20T12:05:00,hld,12.34
2022-08-20T12:06:00,hld,12.37
2022-08-20T12:07:00,hld,12.36
2022-08-20T12:08:00,hld,12.35
2022-08-20T12:09:00,hld,12.36
2022-08-20T12:10:00,hld,12.36
2022-08-20T12:11:00,hld,12.35
2022-08-20T12:12:00,hld,12.36
2022-08-20T12:13:00,hld,12.35
2022-08-20T12:14:00,hld,12.35
2022-08-20T12:15:00,hld,12.34
2022-08-20T12:16:00,hld,12.38
2022-08-20T12:17:00,hld,6.58
2022-08-20T12:18:00,hld,6.16
2022-08-20T12:19:00,hld,6.11
2022-08-20T12:20:00,hld,6.12
2022-08-20T12:21:00,hld,6.12
2022-08-20T12:22:00,hld,6.09
2022-08-20T12:23:00,hld,6.10
2022-08-20T12:24:00,hld,6.11
2022-08-20T12:25:00,hld,6.10
2022-08-20T12:26:00,hld,6.09
2022-08-20T12:27:00,hld,6.09
2022-08-20T12:28:00,hld,6.10
2022-08-20T12:29:00,hld,6.10
2022-08-20T12:30:00,hld,6.09
2022-08-20T12:31:00,hld,6.10
2022-08-20T12:32:00,hld,6.10
2022-08-20T12:33:00,hld,6.09
2022-08-20T12:34:00,hld,6.08
2022-08-20T12:35:00,hld,6.10
2022-08-20T12:36:00,hld,6.09
2022-08-20T12:37:00,hld,6.08
2022-08-20T12:38:00,hld,6.09
2022-08-20T12:39:00,hld,6.09
2022-08-20T12:40:00,hld,6.07
2022-08-20T12:41:00,hld,6.12
2022-08-20T12:42:00,hld,6.10
2022-08-20T12:43:00,hld,6.08
2022-08-20T12:44:00,hld,6.08
2022-08-20T12:45:00,hld,6.05
2022-08-20T12:46:00,hld,6.05
2022-08-20T12:47:00,hld,6.08
2022-08-20T12:48:00,hld,6.11
2022-08-20T12:49:00,hld,6.21
2022-08-20T12:50:00,hld,6.22
2022-08-20T12:51:00,hld,6.19
2022-08-20T12:52:00,hld,6.20
2022-08-20T12:53:00,hld,6.21
2022-08-20T12:54:00,hld,7.69
2022-08-20T12:55:00,hld,6.20
2022-08-20T12:56:00,hld,6.19
2022-08-20T12:57:00,hld,7.80
2022-08-20T12:58:00,hld,9.13
2022-08-20T12:59:00,hld,9.48
2022-08-20T13:00:00,hld,10.44
2022-08-20T13:01:00,hld,10.48
2022-08-20T13:02:00,hld,10.60
2022-08-20T13:03:00,hld,10.61
2022-08-20T13:04:00,hld,10.60
2022-08-20T13:05:00,hld,10.49
2022-08-20T13:06:00,hld,10.49
2022-08-20T13:07:00,hld,10.47
2022-08-20T13:08:00,hld,10.47
2022-08-20T13:09:00,hld,10.49
2022-08-20T13:10:00,hld,8.22
2022-08-20T13:11:00,hld,8.22
2022-08-20T13:12:00,hld,8.21
2022-08-20T13:13:00,hld,8.22
2022-08-20T13:14:00,hld,15.85
2022-08-20T13:15:00,hld,15.71
2022-08-20T13:16:00,hld,17.80
2022-08-20T13:17:00,hld,20.72
2022-08-20T13:18:00,hld,21.06
2022-08-20T13:19:00,hld,12.46
2022-08-20T13:20:00,hld,12.45
2022-08-20T13:21:00,hld,13.62
2022-08-20T13:22:00,hld,13.59
2022-08-20T13:23:00,hld,13.59
2022-08-20T13:24:00,hld,13.60
2022-08-20T13:25:00,hld,12.91
2022-08-20T13:26:00,hld,13.96
2022-08-20T13:27:00,hld,14.52
2022-08-20T13:28:00,hld,13.41
2022-08-20T13:29:00,hld,13.43
2022-08-20T13:30:00,hld,13.40
2022-08-20T13:31:00,hld,13.26
2022-08-20T13:32:00,hld,13.25
2022-08-20T13:33:00,hld,13.27
2022-08-20T13:34:00,hld,13.56
2022-08-20T13:35:00,hld,13.54
2022-08-20T13:36:00,hld,13.53
2022-08-20T13:37:00,hld,13.55
2022-08-20T13:38:00,hld,13.50
2022-08-20T13:39:00,hld,13.51